Location: Austin
(30.3000°N, 97.7500°W)
Time: 05:11:40
(UTC-06:00)

ARIANE 5 R/B - Pass Details

Date: 03 March 2026
Orbit: 746 x 793 km, 98.8° (Epoch: 5 March)

Event Time Altitude Azimuth Distance (km) Brightness Sun altitude
Rises 18:46:29 0° 174° (S) 3,208 5.7 -4.1°
Reaches altitude 10° 18:48:48 10° 178° (S) 2,279 5.0 -4.6°
Maximum altitude 18:53:45 61° 258° (WSW) 855 3.2 -5.6°
Drops below altitude 10° 18:58:41 10° 339° (NNW) 2,269 5.2 -6.7°
Sets 19:01:00 0° 343° (NNW) 3,193 5.9 -7.2°
